Location: Newark
(44.2003°N, 3.2583°E)
Time: 02:32:40
(UTC+00:00)

Vanguard 3 - All Passes

Search period start: 19 October 2019 00:00
Search period end: 29 October 2019 00:00
Orbit: 508 x 3262 km, 33.3° (Epoch: 18 October)

Date Brightness Start Highest point End Pass type
(mag) Time Alt. Az. Time Alt. Az. Time Alt. Az.
19 Oct - 01:48:14 10° SW 01:51:28 22° S 01:55:40 10° SE visible
19 Oct - 03:58:40 10° WSW 04:02:38 20° S 04:08:08 10° SE visible
19 Oct - 06:13:58 10° SSW 06:14:39 10° SSW 06:15:21 10° SSW daylight
20 Oct - 00:35:36 10° SSW 00:38:09 17° S 00:41:03 10° SE night (unlit)
20 Oct - 02:45:34 10° SW 02:48:57 21° S 02:53:30 10° SE visible
20 Oct - 04:57:33 10° SW 05:00:29 13° SSW 05:04:03 10° S visible
20 Oct - 23:23:16 10° SSW 23:24:52 12° SSE 23:26:29 10° SE night (unlit)
21 Oct - 01:32:37 10° SW 01:35:30 20° S 01:39:02 10° SE night (unlit)
21 Oct - 03:43:36 10° SW 03:46:36 15° SSW 03:50:25 10° SSE visible
22 Oct - 00:19:42 10° SW 00:22:11 17° S 00:24:52 10° SE night (unlit)
22 Oct - 02:30:12 10° SW 02:32:59 17° S 02:36:25 10° SSE visible
22 Oct - 23:06:47 10° SSW 23:08:53 14° S 23:10:54 10° SE night (unlit)
23 Oct - 01:16:59 10° SW 01:19:33 17° S 01:22:29 10° SE night (unlit)
23 Oct - 03:29:14 10° SSW 03:30:36 11° SSW 03:32:05 10° S visible
23 Oct - 21:54:03 10° S 21:55:29 11° SSE 21:56:48 10° SSE night (unlit)
24 Oct - 00:03:44 10° SW 00:06:14 17° S 00:08:46 10° SE night (unlit)
24 Oct - 02:15:04 10° SW 02:17:01 13° S 02:19:12 10° SSE visible
24 Oct - 22:50:17 10° SW 22:52:54 16° S 22:55:18 10° SE night (unlit)
25 Oct - 01:01:24 10° SW 01:03:36 15° S 01:05:57 10° SSE night (unlit)
25 Oct - 21:36:40 10° SSW 21:39:30 15° S 21:41:53 10° SE night (unlit)
25 Oct - 23:47:42 10° SW 23:50:17 17° S 23:52:45 10° SE night (unlit)
26 Oct - 20:23:06 10° SSW 20:25:54 13° SSE 20:28:15 10° SE visible
26 Oct - 22:33:46 10° SW 22:36:57 18° S 22:39:40 10° SE night (unlit)
27 Oct - 00:45:49 10° SW 00:47:37 13° SSW 00:49:27 10° SSE night (unlit)
27 Oct - 19:10:21 10° S 19:12:04 11° SSE 19:13:38 10° SSE visible
27 Oct - 21:19:35 10° SW 21:23:31 19° S 21:26:36 10° SE visible
27 Oct - 23:31:35 10° SW 23:34:19 17° S 23:36:49 10° SE night (unlit)
28 Oct - 20:05:15 10° SSW 20:09:54 18° S 20:13:23 10° SE visible
28 Oct - 22:17:12 10° SW 22:21:00 21° S 22:24:02 10° SE night (unlit)
